Wind_Speed
109 108 109 109 109 107 104 99 97 92 90 89 91 92 90 89 85 83 78 75 76 77 75 73 74 77 78 80 81 83 85 85 89 89 93 89 84 81 80 83 83 81 79
108 106 104 101 97 95 93 91 90 88 83 81 84 85 82 77 74 73 69 64 65 67 66 68 66 67 71 72 72 73 71 73 75 80 87 89 85 81 79 83 83 84 85
98 96 92 92 92 90 86 82 81 77 76 76 76 76 71 65 61 59 57 57 57 57 59 59 59 62 66 66 65 65 63 63 67 70 76 82 81 79 84 87 85 84 83
92 89 88 88 87 85 79 75 73 71 69 69 68 65 63 60 57 54 54 55 52 52 53 53 53 55 56 55 55 56 55 55 57 62 63 69 74 81 83 82 82 81 83
85 86 86 81 78 77 72 67 70 65 64 64 61 60 57 57 55 55 54 54 51 48 47 46 46 47 48 48 47 46 46 48 49 49 51 55 60 67 74 80 82 85 82
80 78 76 75 75 73 66 64 62 60 59 57 55 52 54 54 53 53 53 53 51 48 45 44 44 43 44 44 43 42 41 41 39 38 39 43 49 56 63 68 75 81 80
71 70 66 63 64 64 63 58 56 53 53 51 49 45 45 45 47 50 50 49 47 47 45 40 33 34 35 36 38 37 36 34 29 28 28 30 33 39 48 54 61 71 74
58 57 53 52 49 47 49 47 44 46 47 44 41 41 43 45 46 48 45 43 40 36 35 34 27 23 26 29 26 28 28 25 22 22 21 21 24 27 33 39 50 56 57
46 43 38 37 34 34 34 35 37 35 36 38 38 42 40 39 37 35 32 30 27 24 22 21 19 19 21 20 20 19 14 15 16 16 18 20 20 22 25 29 32 36 44
29 28 26 24 25 27 28 26 26 26 28 29 32 31 29 27 23 22 22 18 16 13 12 18 17 16 16 10 5 6 7 9 10 7 9 17 22 22 23 27 32 44 42
22 22 21 18 16 17 18 21 20 21 21 24 25 21 18 15 15 14 11 7 9 18 21 16 14 15 11 10 9 9 9 9 9 8 4 4 9 13 20 22 23 26 30
10 12 13 11 11 14 15 15 16 19 19 22 18 10 10 8 7 4 9 17 22 21 16 16 17 15 13 11 11 11 9 13 11 14 12 9 6 6 9 18 26 33 40
6 9 9 9 11 11 12 17 18 16 15 11 4 4 3 9 12 21 28 25 22 21 21 18 14 13 14 12 11 15 16 16 17 20 19 18 20 22 24 33 42 46 50
9 8 8 10 11 13 14 12 10 6 4 7 11 17 25 28 33 33 29 27 26 26 23 17 13 9 9 9 11 17 19 21 27 25 27 31 33 34 41 44 49 52 55
4 5 7 7 7 4 5 8 12 16 19 24 29 31 35 38 36 31 29 28 26 17 14 9 7 7 4 6 12 17 22 28 28 31 34 37 41 44 46 51 52 50 53
3 2 1 4 10 13 13 28 32 37 41 44 44 43 41 36 30 27 27 21 16 12 9 8 10 11 13 13 21 23 29 32 36 38 40 43 46 49 51 53 53 53 48
9 13 18 21 15 27 42 46 52 53 52 51 48 45 39 33 27 24 20 15 14 16 16 11 10 12 16 18 22 26 31 30 36 38 37 43 47 50 47 43 42 36 35
25 32 33 51 58 61 61 59 58 54 52 49 46 42 40 40 41 38 31 23 19 18 12 6 2 7 10 16 19 25 28 33 35 38 40 40 41 43 44 45 46 46 47
46 53 66 69 67 64 61 57 53 50 47 46 47 45 43 40 35 31 27 21 17 12 7 4 3 7 12 15 19 23 28 32 35 38 42 45 48 51 54 57 58 59 59
77 76 73 70 66 64 59 54 52 50 48 46 43 38 33 28 24 20 18 13 9 5 7 8 13 19 22 26 29 33 37 39 42 47 50 54 56 58 60 60 59 55 50
72 68 66 64 59 53 48 44 42 40 36 33 31 27 21 16 13 11 7 5 6 8 12 16 21 25 29 32 36 40 45 49 53 56 59 61 62 61 57 55 52 47 41
64 61 57 53 49 45 42 39 36 33 30 26 23 19 17 12 7 3 3 7 11 16 19 24 28 32 36 39 42 46 49 53 57 59 60 61 60 57 53 48 45 38 33
54 51 48 45 42 39 35 31 28 25 22 18 14 10 7 6 6 9 13 17 18 21 24 27 31 35 39 41 44 48 53 57 60 60 58 56 53 50 46 40 34 28 25
48 45 41 38 34 29 26 23 21 19 17 14 13 13 12 12 13 17 19 25 25 27 30 30 32 34 37 42 48 54 55 54 54 52 51 49 44 35 29 23 19 16 13
43 40 39 38 36 31 27 23 21 23 22 20 19 18 22 22 23 23 24 26 25 27 31 34 38 43 45 48 49 50 50 50 49 47 43 37 30 25 20 14 11 9 4
37 37 34 32 31 31 28 28 29 24 25 25 26 29 35 31 30 30 29 26 30 36 39 42 45 46 46 46 47 48 48 46 44 40 34 29 25 19 14 9 7 7 8
Wind_Direction
276 276 276 277 279 280 280 280 280 282 283 285 284 282 281 281 279 276 274 270 266 267 267 267 265 265 265 265 265 264 263 261 259 255 254 254 254 254 253 255 256 257 260
276 277 278 277 277 278 278 279 280 281 282 279 280 279 279 278 276 274 271 269 267 264 263 264 264 265 265 264 265 265 264 261 257 255 253 253 253 252 252 252 254 254 255
275 276 276 276 277 278 279 279 280 281 280 282 278 278 278 277 276 277 275 271 267 264 262 262 261 261 262 262 265 266 264 260 257 254 252 251 251 251 249 250 252 254 256
273 273 274 275 277 278 279 282 282 279 281 279 279 278 279 280 279 277 273 270 268 266 266 263 260 260 263 265 265 266 265 261 257 255 254 251 249 249 250 250 252 254 254
274 275 276 278 277 277 278 279 277 280 278 278 275 277 279 279 276 273 271 269 267 265 264 263 262 262 264 266 267 269 269 268 267 266 263 258 252 248 249 248 249 251 253
274 275 276 275 273 273 274 271 274 274 273 272 273 277 277 276 276 277 274 272 270 266 262 262 262 262 261 262 266 269 271 274 279 276 269 263 257 251 247 248 248 249 249
273 271 273 271 273 271 270 268 265 267 267 270 276 274 273 275 275 275 276 275 271 266 262 258 263 259 259 259 262 267 271 279 282 283 277 266 260 254 246 247 251 250 249
273 272 272 271 269 267 262 262 260 263 267 269 270 273 276 275 273 271 272 271 268 266 262 253 253 254 250 254 263 265 279 284 286 283 271 270 261 253 247 240 245 256 252
269 273 271 267 263 257 256 256 258 260 264 269 273 274 277 276 271 269 269 262 259 256 245 227 230 235 243 250 255 274 279 274 270 270 261 243 245 238 234 234 242 254 253
260 258 259 254 253 254 250 251 258 269 272 268 267 273 272 269 266 259 248 245 239 230 197 183 206 215 232 236 229 219 250 232 244 242 261 244 231 233 229 235 230 239 251
256 253 252 245 242 243 247 261 269 274 274 276 281 275 264 257 251 234 225 226 165 156 162 171 179 189 189 190 192 194 201 203 204 205 196 217 217 233 239 243 247 253 261
219 227 223 239 246 254 257 267 278 280 280 277 274 266 247 247 224 160 123 133 143 144 144 152 168 169 179 195 193 188 186 191 193 198 206 217 232 224 235 245 252 250 246
202 211 217 234 254 274 286 282 280 273 263 265 255 213 171 140 119 126 126 130 129 132 136 144 157 178 199 207 201 194 190 209 209 221 219 218 217 222 225 236 241 246 249
201 213 237 263 284 293 285 271 248 220 163 145 133 130 122 120 122 121 124 128 128 130 131 131 138 154 194 212 225 201 206 221 231 224 221 233 230 227 230 235 241 247 251
204 249 275 299 295 243 175 154 133 128 123 114 107 105 112 116 117 121 126 128 132 128 129 134 145 169 197 222 191 211 238 228 239 237 236 240 240 241 248 252 263 275 273
209 292 15 125 111 98 115 115 107 105 102 98 99 103 104 108 114 124 129 129 136 136 131 129 152 168 168 195 215 231 240 243 243 249 250 249 251 254 258 264 279 290 295
98 99 99 85 94 109 101 100 97 97 96 95 96 100 105 108 111 116 120 123 125 128 133 151 145 180 201 221 238 245 255 265 263 266 275 275 275 275 282 289 287 296 300
105 101 103 105 98 94 92 95 97 99 98 98 100 102 99 97 97 92 89 93 92 97 107 101 210 259 265 262 265 271 274 277 280 279 284 288 290 292 295 298 301 306 307
102 104 98 93 90 91 92 91 93 94 95 93 92 91 95 93 92 89 84 82 80 74 65 16 307 295 289 283 278 279 281 281 282 284 287 290 291 294 298 301 303 304 301
95 92 91 90 90 91 87 87 89 88 88 88 89 89 88 86 84 80 66 73 63 32 340 309 292 284 280 282 280 278 280 283 286 289 290 292 293 295 297 299 298 298 298
91 90 88 88 89 90 90 90 90 88 87 88 87 85 84 79 75 71 53 10 326 288 280 270 270 274 279 281 281 281 286 291 294 295 297 300 304 305 305 306 306 304 301
89 88 89 90 93 94 92 89 91 91 89 83 85 87 93 96 105 137 213 247 262 269 276 280 285 289 290 291 292 292 293 294 295 299 304 306 306 306 306 305 303 299 298
93 95 96 94 92 89 88 88 86 85 88 90 93 89 64 47 14 335 321 321 312 306 302 298 295 295 295 296 297 296 296 300 304 305 305 305 305 304 303 301 299 296 290
87 86 86 88 87 84 79 75 70 59 49 37 28 17 3 345 322 308 301 311 314 312 312 313 313 311 308 303 300 301 304 305 307 307 307 308 310 308 306 303 300 298 286
79 77 78 75 71 69 64 62 59 49 38 26 20 19 9 359 347 337 330 325 325 329 330 328 324 321 313 308 309 310 310 311 312 313 315 317 317 318 315 306 294 278 245
73 70 68 64 59 52 49 44 33 26 22 19 13 6 5 356 350 346 341 343 341 337 334 330 327 320 318 316 315 315 316 317 318 320 323 326 326 325 320 301 266 216 187
Height
10576 10576 10573 10569 10565 10564 10562 10558 10554 10556 10554 10549 10539 10535 10532 10531 10531 10531 10536 10539 10541 10540 10543 10546 10549 10553 10556 10558 10560 10566 10574 10582 10592 10601 10601 10611 10622 10634 10642 10646 10650 10655 10659
10547 10547 10546 10541 10538 10537 10536 10536 10533 10534 10531 10525 10518 10510 10508 10509 10507 10507 10512 10516 10517 10519 10524 10524 10529 10533 10532 10534 10538 10543 10552 10558 10565 10573 10578 10587 10601 10612 10617 10622 10629 10633 10638
10520 10520 10520 10515 10514 10512 10514 10514 10511 10511 10507 10502 10495 10488 10487 10488 10489 10491 10494 10496 10498 10500 10503 10507 10510 10511 10514 10517 10523 10527 10532 10536 10542 10551 10557 10565 10578 10588 10593 10599 10605 10612 10620
10498 10497 10496 10493 10493 10489 10492 10493 10490 10489 10485 10478 10474 10470 10470 10472 10473 10475 10475 10476 10481 10485 10488 10491 10494 10495 10500 10506 10510 10512 10516 10519 10524 10530 10540 10548 10555 10561 10569 10580 10586 10592 10599
10475 10474 10472 10473 10471 10469 10471 10472 10468 10468 10465 10459 10457 10457 10459 10457 10456 10457 10459 10460 10465 10468 10472 10476 10480 10486 10490 10495 10496 10499 10503 10506 10512 10518 10524 10530 10535 10542 10548 10556 10565 10570 10579
10450 10450 10449 10448 10445 10446 10448 10450 10449 10450 10446 10445 10445 10446 10444 10442 10441 10440 10440 10443 10448 10452 10457 10462 10470 10475 10480 10483 10486 10490 10494 10498 10503 10506 10508 10511 10515 10522 10530 10536 10544 10551 10559
10425 10424 10425 10427 10426 10425 10430 10432 10432 10433 10432 10433 10433 10433 10431 10431 10430 10429 10429 10429 10432 10436 10444 10451 10459 10465 10471 10474 10478 10483 10487 10490 10492 10494 10496 10499 10502 10507 10514 10523 10527 10532 10541
10404 10405 10405 10406 10408 10410 10414 10416 10418 10420 10420 10420 10421 10421 10420 10419 10420 10417 10418 10419 10421 10427 10432 10441 10451 10458 10461 10465 10473 10476 10481 10483 10485 10487 10488 10490 10492 10497 10501 10508 10516 10521 10527
10390 10391 10391 10393 10396 10398 10401 10404 10407 10408 10409 10411 10411 10409 10409 10408 10406 10407 10408 10410 10413 10418 10424 10433 10445 10451 10456 10462 10467 10473 10477 10478 10480 10480 10480 10481 10484 10488 10493 10499 10505 10510 10515
10381 10380 10383 10385 10386 10389 10391 10395 10397 10400 10401 10401 10400 10400 10399 10397 10397 10398 10399 10403 10407 10413 10421 10430 10440 10447 10454 10460 10464 10469 10472 10474 10475 10477 10476 10477 10480 10484 10488 10493 10498 10502 10506
10371 10373 10375 10377 10380 10383 10386 10389 10390 10391 10391 10390 10390 10389 10390 10389 10391 10393 10396 10402 10406 10411 10419 10430 10438 10445 10452 10457 10462 10465 10469 10472 10474 10475 10475 10476 10478 10482 10484 10488 10492 10496 10499
10366 10368 10372 10375 10377 10379 10381 10381 10381 10381 10382 10382 10383 10384 10384 10387 10391 10395 10398 10402 10408 10415 10424 10432 10439 10446 10451 10456 10460 10463 10467 10470 10471 10471 10472 10474 10477 10480 10483 10486 10487 10487 10485
10365 10368 10370 10372 10373 10373 10373 10374 10375 10376 10376 10377 10379 10381 10384 10390 10390 10395 10400 10407 10414 10421 10428 10436 10441 10447 10452 10456 10459 10462 10465 10467 10466 10467 10469 10470 10470 10472 10475 10474 10473 10472 10473
10365 10366 10368 10369 10369 10369 10369 10369 10369 10372 10373 10376 10378 10382 10384 10388 10393 10400 10407 10414 10421 10429 10435 10440 10444 10448 10452 10455 10458 10461 10462 10462 10462 10463 10464 10465 10466 10465 10463 10460 10460 10461 10461
10364 10365 10366 10366 10365 10364 10365 10367 10370 10371 10375 10379 10381 10385 10390 10395 10401 10408 10415 10422 10430 10435 10440 10443 10446 10449 10452 10455 10458 10459 10459 10459 10458 10459 10459 10458 10457 10456 10455 10453 10452 10452 10452
10365 10365 10365 10364 10365 10365 10368 10371 10376 10378 10380 10384 10388 10393 10400 10407 10413 10419 10425 10431 10435 10438 10441 10444 10447 10450 10452 10454 10454 10454 10454 10454 10453 10451 10451 10450 10448 10447 10446 10444 10443 10440 10438
10367 10368 10369 10372 10376 10377 10379 10380 10380 10386 10392 10396 10401 10407 10412 10418 10424 10429 10433 10437 10439 10441 10444 10446 10449 10451 10452 10452 10452 10452 10451 10449 10447 10445 10443 10441 10439 10436 10436 10432 10429 10428 10425
10374 10377 10383 10386 10385 10386 10389 10394 10400 10405 10408 10411 10415 10421 10425 10430 10434 10437 10440 10443 10445 10447 10449 10451 10453 10453 10452 10451 10450 10448 10445 10442 10439 10436 10433 10429 10426 10423 10420 10417 10415 10412 10410
10390 10396 10396 10397 10399 10403 10407 10413 10417 10421 10425 10428 10430 10434 10438 10441 10443 10446 10448 10450 10452 10453 10454 10454 10454 10453 10452 10450 10447 10443 10440 10435 10431 10427 10423 10418 10414 10410 10406 10402 10398 10394 10392
10408 10409 10411 10412 10416 10421 10426 10430 10434 10437 10439 10442 10444 10447 10449 10450 10451 10453 10454 10455 10456 10456 10455 10454 10452 10450 10447 10443 10439 10435 10430 10425 10420 10416 10411 10406 10401 10396 10391 10386 10381 10375 10371
10422 10424 10426 10428 10433 10438 10442 10445 10447 10447 10450 10451 10452 10454 10456 10458 10458 10458 10458 10457 10457 10455 10453 10450 10447 10444 10440 10436 10431 10425 10420 10414 10408 10400 10394 10388 10382 10376 10370 10365 10360 10355 10353
10437 10439 10443 10448 10452 10454 10455 10456 10458 10459 10460 10461 10461 10461 10461 10462 10461 10460 10459 10457 10456 10453 10450 10446 10442 10437 10432 10426 10420 10413 10406 10399 10391 10385 10378 10372 10364 10358 10352 10347 10344 10340 10338
10453 10456 10460 10463 10464 10465 10466 10468 10469 10469 10469 10469 10468 10468 10467 10465 10463 10461 10458 10455 10451 10447 10443 10438 10432 10427 10421 10414 10408 10400 10392 10384 10377 10370 10362 10356 10349 10343 10337 10332 10328 10326 10324
10471 10473 10473 10474 10475 10476 10477 10477 10477 10476 10476 10475 10474 10471 10469 10466 10462 10459 10455 10450 10445 10440 10435 10430 10424 10418 10411 10404 10395 10386 10378 10370 10362 10354 10347 10340 10333 10327 10323 10319 10317 10315 10315
10482 10483 10483 10484 10485 10485 10485 10484 10483 10482 10480 10477 10474 10471 10468 10463 10458 10453 10448 10443 10438 10434 10428 10422 10415 10407 10397 10389 10380 10371 10363 10355 10347 10339 10332 10325 10319 10315 10312 10310 10309 10309 10310
10492 10492 10491 10491 10492 10491 10490 10489 10487 10483 10480 10477 10473 10469 10465 10459 10453 10447 10442 10437 10433 10427 10420 10412 10403 10393 10384 10374 10366 10358 10350 10342 10333 10326 10320 10314 10310 10307 10305 10304 10303 10304 10306